sat.trackr.live / text

‹ back to catalog

STARLINK-33943

NORAD 63884 · 2025-094W

PAYLOAD ACTIVE UNKNOWN

§ Identity

Operator
Country
US
Launch date
2025-05-10
Launch site
AFWTR
Launch vehicle
Mass (kg)
RCS (m²)

Purposes: comms

External: N2YO · Heavens-Above · Gunter

§ Orbital elements

Epoch: 2026-09-20T06:03:25.626816Z

Period
94.14 min
Inclination
69.9995°
Eccentricity
0.0003048
Mean motion
15.29586105 rev/d
Perigee alt
475.0 km
Apogee alt
479.1 km
Semi-major
6,855.2 km
B*
4.0421e-4
RAAN
101.6316°
Arg perigee
268.3654°
Mean anomaly
91.7172°
Rev number
7,640

§ Raw data

STARLINK-339431 63884U 25094W   26263.25237994  .00011512  00000+0  40421-3 0  99922 63884  69.9995 101.6316 0003048 268.3654  91.7172 15.29586105 76401

JSON: /api/v1/satellites/63884 · /tle

For live sub-satellite position, see the globe view (requires WebGL).

§ Visibility from observer

Set your observer location to see the next 7 days of passes ≥ 10°. The values pass through the URL so the page stays shareable.

No JS? Fill the form by hand. The geolocation button needs JavaScript.